FW6560 Weather Reports


time (UTC)temp
F
wind
direction
speed
knots
gust
knots
rain 1hr
in
rain 24hr
in
rain mn
in
humidity
%
barometer
mb
20260507145159 81 45 0.0 9.6 0.00 0.00 0.00 80 1004.5
20260507144642 80 0 0.0 9.6 0.00 0.00 0.00 79 1004.0
20260507144132 80 68 0.0 7.0 0.00 0.00 0.00 80 1004.2
20260507143111 80 0 3.5 9.6 0.00 0.00 0.00 79 1004.4
20260507142051 80 23 7.0 11.3 0.00 0.00 0.00 79 1004.5
20260507141032 81 23 0.0 9.6 0.00 0.00 0.00 77 1004.4
20260507140521 81 45 4.3 9.6 0.00 0.00 0.00 78 1004.5
20260507140023 81 45 3.5 9.6 0.00 0.00 0.00 77 1004.6
20260507135511 81 68 5.2 11.3 0.00 0.00 0.00 77 1004.6
20260507134951 81 23 4.3 11.3 0.00 0.00 0.00 77 1004.7
20260507134440 80 68 5.2 9.6 0.00 0.00 0.00 77 1004.8
20260507133930 81 45 5.2 9.6 0.00 0.00 0.00 77 1005.0
20260507133420 81 23 2.6 11.3 0.00 0.00 0.00 77 1004.8
20260507132910 81 45 3.5 11.3 0.00 0.00 0.00 76 1005.0
20260507132401 81 0 1.7 9.6 0.00 0.00 0.00 76 1005.0
20260507131850 81 68 6.1 11.3 0.00 0.00 0.00 76 1005.0
20260507131340 81 45 4.3 11.3 0.00 0.00 0.00 76 1004.8
20260507130831 81 23 0.0 11.3 0.00 0.00 0.00 76 1004.9
20260507130319 81 23 2.6 11.3 0.00 0.00 0.00 76 1005.0
20260507125810 81 68 3.5 11.3 0.00 0.00 0.00 76 1005.1
20260507125259 81 68 2.6 11.3 0.00 0.00 0.00 76 1005.0
20260507124749 81 68 5.2 11.3 0.00 0.00 0.00 76 1005.2
20260507124240 81 68 4.3 11.3 0.00 0.00 0.00 75 1005.2
20260507123729 81 68 4.3 11.3 0.00 0.00 0.00 75 1005.3
20260507122709 81 68 2.6 6.1 0.00 0.00 0.00 74 1005.4
20260507122200 80 45 0.9 9.6 0.00 0.00 0.00 76 1005.4
20260507121649 80 90 3.5 9.6 0.00 0.00 0.00 77 1005.6
20260507121138 80 23 3.5 7.8 0.00 0.00 0.00 77 1005.6
20260507120629 80 68 1.7 9.6 0.00 0.00 0.00 77 1005.7
20260507120125 80 23 0.0 9.6 0.00 0.00 0.00 77 1005.6
20260507115609 79 68 0.9 5.2 0.00 0.00 0.00 77 1005.5
20260507114549 79 23 0.0 9.6 0.00 0.00 0.00 77 1005.3
20260507114038 79 45 0.0 9.6 0.00 0.00 0.00 77 1005.6
20260507113528 79 68 0.9 9.6 0.00 0.00 0.00 77 1005.1
20260507113024 79 90 0.9 9.6 0.00 0.00 0.00 77 1005.4
20260507112507 80 45 3.5 11.3 0.00 0.00 0.00 76 1005.3
20260507111957 79 90 0.9 11.3 0.00 0.00 0.00 77 1005.3
20260507111447 79 68 0.0 9.6 0.00 0.00 0.00 77 1005.0
20260507110937 80 23 4.3 9.6 0.00 0.00 0.00 76 1005.3
20260507110427 79 45 3.5 7.0 0.00 0.00 0.00 76 1005.3
20260507105917 79 45 0.9 6.1 0.00 0.00 0.00 77 1005.5
20260507105406 79 23 0.9 9.6 0.00 0.00 0.00 77 1005.5
20260507104857 79 23 0.0 9.6 0.00 0.00 0.00 77 1005.7
20260507104346 79 338 0.0 7.0 0.00 0.00 0.00 77 1005.6
20260507103836 79 45 3.5 6.1 0.00 0.00 0.00 77 1005.1
20260507103326 79 0 0.0 7.8 0.00 0.00 0.00 77 1005.4
20260507102816 79 68 1.7 7.8 0.00 0.00 0.00 77 1005.1
20260507102307 79 0 0.0 7.8 0.00 0.00 0.00 77 1005.1
20260507101246 79 45 4.3 7.8 0.00 0.00 0.00 77 1004.9
20260507100735 79 45 0.9 11.3 0.00 0.00 0.00 77 1004.9
20260507100226 79 68 0.9 11.3 0.00 0.00 0.00 77 1004.6
20260507095716 79 45 4.3 11.3 0.00 0.00 0.00 77 1004.8
20260507095205 79 68 0.9 9.6 0.00 0.00 0.00 77 1004.8
20260507094655 80 45 0.0 12.2 0.00 0.00 0.00 77 1004.7
20260507094146 80 23 1.7 12.2 0.00 0.00 0.00 76 1004.4
20260507093635 80 23 3.5 9.6 0.00 0.00 0.00 77 1004.3
20260507093125 80 45 2.6 9.6 0.00 0.00 0.00 77 1004.4
20260507092615 80 0 3.5 9.6 0.00 0.00 0.00 77 1004.3
20260507092104 80 23 1.7 9.6 0.00 0.00 0.00 77 1003.9
20260507091044 80 45 0.0 11.3 0.00 0.00 0.00 77 1003.8
20260507090535 80 23 1.7 11.3 0.00 0.00 0.00 77 1003.8
20260507090028 80 45 3.5 11.3 0.00 0.00 0.00 76 1003.8
20260507085514 80 90 3.5 14.8 0.00 0.00 0.00 76 1003.8
20260507085005 80 113 0.0 14.8 0.00 0.00 0.00 76 1003.7
20260507084453 80 0 3.5 12.2 0.00 0.00 0.00 76 1003.9
20260507083943 80 23 9.6 12.2 0.00 0.00 0.00 76 1003.8
20260507083434 80 23 7.0 13.9 0.00 0.00 0.00 77 1003.9
20260507082923 80 23 1.7 13.9 0.00 0.00 0.00 77 1003.9
20260507082413 80 23 3.5 7.0 0.00 0.00 0.00 78 1004.3
20260507081353 79 45 0.0 9.6 0.00 0.00 0.00 79 1004.3
20260507080843 79 45 0.0 7.8 0.00 0.00 0.00 79 1004.4
20260507080333 79 90 2.6 9.6 0.00 0.00 0.00 79 1004.3
20260507075823 79 68 3.5 9.6 0.00 0.00 0.00 80 1004.4
20260507074803 79 23 0.9 3.5 0.00 0.00 0.00 80 1004.4
20260507074253 79 45 0.0 6.1 0.00 0.00 0.00 80 1004.6
20260507073742 79 68 1.7 6.1 0.00 0.00 0.00 80 1004.6
20260507073232 79 68 0.0 3.5 0.00 0.00 0.00 81 1004.8
20260507072722 79 0 0.0 6.1 0.00 0.00 0.00 80 1004.7
20260507072212 79 23 1.7 6.1 0.00 0.00 0.00 80 1004.7
20260507071702 79 45 0.0 5.2 0.00 0.00 0.00 80 1004.7
20260507071152 79 68 0.0 6.1 0.00 0.00 0.00 81 1004.9
20260507070642 79 68 0.9 6.1 0.00 0.00 0.00 81 1004.8
20260507070131 79 23 0.0 1.7 0.00 0.00 0.00 81 1004.9
20260507065111 79 45 0.0 1.7 0.00 0.00 0.00 82 1005.0
20260507064602 79 90 0.0 5.2 0.00 0.00 0.00 81 1005.1
20260507063541 79 45 0.9 5.2 0.00 0.00 0.00 82 1005.1
20260507062521 79 90 1.7 6.1 0.00 0.00 0.00 82 1005.2
20260507062023 79 68 0.0 9.6 0.00 0.00 0.00 82 1005.1
20260507061502 79 90 0.0 9.6 0.00 0.00 0.00 82 1005.2
20260507060950 79 90 0.9 9.6 0.00 0.00 0.00 82 1005.3
20260507060440 79 68 0.0 1.7 0.00 0.00 0.00 82 1005.5
20260507055930 79 68 0.0 1.7 0.00 0.00 0.00 82 1005.4
20260507055420 79 68 0.0 3.5 0.00 0.00 0.00 82 1005.6
20260507054909 79 68 0.0 3.5 0.00 0.00 0.00 82 1005.7
20260507053850 79 45 0.9 1.7 0.00 0.00 0.00 82 1005.8
20260507053340 79 45 0.0 9.6 0.00 0.00 0.00 82 1006.1
20260507052319 79 68 0.0 7.8 0.00 0.00 0.00 82 1006.0
20260507051809 79 90 1.7 7.8 0.00 0.00 0.00 82 1006.2
20260507051259 79 68 0.0 3.5 0.00 0.00 0.00 82 1006.0
20260507050149 79 45 0.0 0.0 0.00 0.00 0.00 81 1006.4
20260507045929 79 90 1.7 7.8 0.00 0.00 0.00 81 1006.4
20260507045419 79 90 0.0 7.0 0.00 0.00 0.00 81 1006.3
20260507044909 79 135 1.7 7.0 0.00 0.00 0.00 81 1006.4
20260507044358 79 68 0.0 3.5 0.00 0.00 0.00 81 1006.7
20260507043849 79 90 0.0 3.5 0.00 0.00 0.00 81 1006.6
20260507043339 79 68 0.0 6.1 0.00 0.00 0.00 81 1006.6
20260507042829 79 68 0.0 6.1 0.00 0.00 0.00 81 1006.6
20260507042318 80 68 0.9 5.2 0.00 0.00 0.00 81 1006.6
20260507041809 80 45 1.7 7.8 0.00 0.00 0.00 80 1006.7
20260507041258 80 23 2.6 7.8 0.00 0.00 0.00 80 1006.6
20260507040748 80 45 0.0 1.7 0.00 0.00 0.00 80 1006.5
20260507035728 80 23 1.7 7.8 0.00 0.00 0.00 80 1006.6
20260507035218 80 68 0.0 6.1 0.00 0.00 0.00 80 1006.8
20260507034708 80 23 0.9 6.1 0.00 0.00 0.00 79 1006.5
20260507034157 80 68 0.0 5.2 0.00 0.00 0.00 79 1006.6
20260507033647 80 68 0.0 9.6 0.00 0.00 0.00 79 1006.9
20260507033138 80 68 0.9 9.6 0.00 0.00 0.00 79 1007.0
20260507032118 80 68 0.0 7.0 0.00 0.00 0.00 80 1006.9
20260507031606 80 23 0.0 5.2 0.00 0.00 0.00 80 1007.2
20260507031057 80 45 0.0 9.6 0.00 0.00 0.00 80 1007.2
20260507030037 80 45 2.6 7.0 0.00 0.00 0.00 80 1006.9
20260507025526 80 45 0.0 7.0 0.00 0.00 0.00 79 1007.2
20260507025023 80 68 0.0 5.2 0.00 0.00 0.00 80 1007.2
20260507024514 80 45 0.0 5.2 0.00 0.00 0.00 80 1007.2
20260507023956 80 68 0.0 9.6 0.00 0.00 0.00 80 1007.2
20260507023446 80 45 0.9 9.6 0.00 0.00 0.00 80 1007.0
20260507022936 80 90 1.7 7.0 0.00 0.00 0.00 80 1007.1
20260507022425 80 68 0.0 7.0 0.00 0.00 0.00 80 1007.5
20260507021406 80 45 3.5 7.0 0.00 0.00 0.00 80 1007.2
20260507020855 80 45 1.7 7.0 0.00 0.00 0.00 80 1007.5
20260507020345 80 68 0.9 5.2 0.00 0.00 0.00 80 1007.7
20260507015836 80 68 0.9 3.5 0.00 0.00 0.00 80 1007.4
20260507015325 80 68 0.0 6.1 0.00 0.00 0.00 80 1007.4
20260507014816 80 68 1.7 7.8 0.00 0.00 0.00 80 1007.6
20260507013245 80 45 0.0 6.1 0.00 0.00 0.00 80 1007.5
20260507012734 80 68 0.0 6.1 0.00 0.00 0.00 80 1007.6
20260507012224 80 113 0.9 3.5 0.00 0.00 0.00 80 1007.5
20260507011715 80 68 0.0 7.8 0.00 0.00 0.00 80 1007.9
20260507010654 80 45 0.0 7.0 0.00 0.00 0.00 80 1007.9
20260507010143 80 45 0.0 6.1 0.00 0.00 0.00 80 1007.9
20260507005634 80 45 0.0 6.1 0.00 0.00 0.00 80 1007.5
20260507005124 80 45 1.7 3.5 0.00 0.00 0.00 80 1007.8
20260507004613 80 68 0.0 7.8 0.00 0.00 0.00 80 1007.7
20260507004104 80 0 1.7 7.8 0.00 0.00 0.00 80 1008.0
20260507003554 81 90 0.9 7.0 0.00 0.00 0.00 80 1007.8
20260507003043 81 68 1.7 7.0 0.00 0.00 0.00 80 1007.9
20260507002535 80 68 0.0 5.2 0.00 0.00 0.00 81 1007.8
20260507002025 81 45 0.0 6.1 0.00 0.00 0.00 80 1007.7
20260507001518 81 23 0.9 6.1 0.00 0.00 0.00 79 1007.9
20260506235942 81 68 3.5 6.1 0.00 0.00 0.00 80 1007.8
20260506235432 80 90 1.7 6.1 0.00 0.00 0.00 81 1007.9
20260506234922 80 90 0.0 7.0 0.00 0.00 0.00 82 1007.8
20260506234413 80 90 0.0 7.0 0.00 0.00 0.00 82 1007.9
20260506233902 80 45 0.0 5.2 0.00 0.00 0.00 83 1007.8
20260506232841 80 90 0.9 3.5 0.00 0.00 0.00 83 1007.9
20260506232332 80 45 0.9 1.7 0.00 0.00 0.00 83 1007.9
20260506231821 80 68 0.0 6.1 0.00 0.00 0.00 83 1008.2
20260506231312 80 45 2.6 6.1 0.00 0.00 0.00 83 1008.0
20260506230251 80 68 0.0 1.7 0.00 0.00 0.00 82 1008.6
20260506225741 80 45 0.0 1.7 0.00 0.00 0.00 82 1008.3
20260506224721 81 90 0.0 7.0 0.00 0.00 0.00 81 1008.4
20260506223700 81 68 0.0 6.1 0.00 0.00 0.00 80 1008.5
20260506223151 81 45 0.0 6.1 0.00 0.00 0.00 80 1008.3
20260506222641 81 68 0.0 1.7 0.00 0.00 0.00 80 1008.5
20260506221620 81 68 0.0 1.7 0.00 0.00 0.00 81 1008.3
20260506221110 81 68 0.0 1.7 0.00 0.00 0.00 81 1008.5
20260506220601 81 68 0.0 1.7 0.00 0.00 0.00 81 1008.4
20260506220050 81 68 0.0 1.7 0.00 0.00 0.00 81 1008.3
20260506215540 81 90 0.0 1.7 0.00 0.00 0.00 80 1008.4
20260506215029 82 68 0.0 1.7 0.00 0.00 0.00 80 1008.5
20260506214519 82 68 0.0 1.7 0.00 0.00 0.00 79 1008.5
20260506214024 82 90 0.0 1.7 0.00 0.00 0.00 79 1008.5
20260506213459 82 68 0.0 1.7 0.00 0.00 0.00 78 1008.6
20260506212949 82 90 0.0 3.5 0.00 0.00 0.00 78 1008.4
20260506210909 83 68 0.0 1.7 0.00 0.00 0.00 77 1008.6
20260506210358 83 45 0.0 1.7 0.00 0.00 0.00 76 1008.8
20260506205849 83 45 0.0 1.7 0.00 0.00 0.00 76 1008.7
20260506205338 83 68 0.0 7.8 0.00 0.00 0.00 76 1008.6
20260506204828 83 68 0.0 7.8 0.00 0.00 0.00 75 1008.8
20260506202748 84 45 0.0 6.1 0.00 0.00 0.00 74 1008.9
20260506202238 84 23 3.5 6.1 0.00 0.00 0.00 73 1008.8
20260506201728 85 68 0.0 7.8 0.00 0.00 0.00 73 1008.7
20260506200707 85 68 0.9 7.8 0.00 0.00 0.00 73 1008.9
20260506200157 85 90 0.0 6.1 0.00 0.00 0.00 73 1008.9
20260506195648 85 90 0.0 7.0 0.00 0.00 0.00 73 1009.0
20260506194628 85 45 0.0 9.6 0.00 0.00 0.00 72 1009.0
20260506194117 85 90 2.6 9.6 0.00 0.00 0.00 73 1008.8
20260506193608 85 113 3.5 9.6 0.00 0.00 0.00 72 1008.9
20260506193057 86 68 0.0 9.6 0.00 0.00 0.00 72 1008.8
20260506192546 86 45 1.7 9.6 0.00 0.00 0.00 71 1009.1
20260506192037 86 68 0.0 9.6 0.00 0.00 0.00 71 1009.1
20260506191025 86 68 3.5 11.3 0.00 0.00 0.00 70 1008.9
20260506185956 87 68 6.1 9.6 0.00 0.00 0.00 69 1009.0
20260506185445 87 45 4.3 9.6 0.00 0.00 0.00 69 1009.0
20260506184935 87 45 1.7 9.6 0.00 0.00 0.00 68 1008.8
20260506184426 87 68 0.0 9.6 0.00 0.00 0.00 68 1009.1
20260506183915 86 90 1.7 9.6 0.00 0.00 0.00 68 1009.2
20260506183406 87 68 1.7 9.6 0.00 0.00 0.00 68 1009.2
20260506182855 87 23 2.6 9.6 0.00 0.00 0.00 68 1009.5
20260506182346 87 113 3.5 9.6 0.00 0.00 0.00 68 1009.6
20260506181835 87 90 0.9 11.3 0.00 0.00 0.00 68 1009.5
20260506181325 88 68 0.9 11.3 0.00 0.00 0.00 66 1009.5
20260506180815 88 90 0.9 9.6 0.00 0.00 0.00 66 1009.5
20260506180305 88 68 1.7 11.3 0.00 0.00 0.00 67 1009.7
20260506175755 88 90 4.3 11.3 0.00 0.00 0.00 67 1009.8
20260506175244 87 68 4.3 11.3 0.00 0.00 0.00 67 1010.0
20260506174734 87 68 3.5 11.3 0.00 0.00 0.00 68 1010.1
20260506174224 88 23 0.9 11.3 0.00 0.00 0.00 67 1010.4
20260506173714 88 0 1.7 9.6 0.00 0.00 0.00 65 1010.4
20260506173204 88 23 3.5 9.6 0.00 0.00 0.00 66 1010.4
20260506172654 87 45 1.7 11.3 0.00 0.00 0.00 67 1010.1
20260506172144 88 45 4.3 11.3 0.00 0.00 0.00 67 1010.4
20260506170103 88 23 5.2 14.8 0.00 0.00 0.00 66 1010.5
20260506165553 88 45 6.1 13.9 0.00 0.00 0.00 65 1010.8
20260506165043 88 23 7.0 13.9 0.00 0.00 0.00 66 1011.1
20260506164533 87 0 3.5 13.9 0.00 0.00 0.00 67 1010.9
20260506163513 87 23 7.0 13.0 0.00 0.00 0.00 67 1011.5
20260506162452 87 113 7.8 13.9 0.00 0.00 0.00 68 1011.5
20260506161942 88 23 3.5 13.0 0.00 0.00 0.00 67 1011.4
20260506161433 87 45 4.3 13.0 0.00 0.00 0.00 67 1011.3
20260506160922 87 23 2.6 11.3 0.00 0.00 0.00 69 1011.7
20260506160411 87 45 0.9 9.6 0.00 0.00 0.00 70 1011.6
20260506155901 87 68 0.0 9.6 0.00 0.00 0.00 70 1011.6
20260506155352 86 68 4.3 9.6 0.00 0.00 0.00 70 1011.7
20260506154841 86 45 4.3 7.8 0.00 0.00 0.00 70 1011.8
20260506154332 87 45 3.5 11.3 0.00 0.00 0.00 70 1012.0
20260506153821 86 45 1.7 11.3 0.00 0.00 0.00 70 1012.3
20260506153311 87 0 1.7 11.3 0.00 0.00 0.00 69 1012.4
20260506152801 86 45 3.5 11.3 0.00 0.00 0.00 70 1012.4
20260506152251 86 315 0.9 9.6 0.00 0.00 0.00 70 1012.5
20260506151740 85 45 1.7 9.6 0.00 0.00 0.00 69 1012.6
20260506151231 86 68 0.0 9.6 0.00 0.00 0.00 70 1012.8
20260506150721 85 0 2.6 9.6 0.00 0.00 0.00 70 1012.7
20260506150211 85 68 4.3 9.6 0.00 0.00 0.00 71 1013.0
20260506145701 85 0 4.3 9.6 0.00 0.00 0.00 70 1013.0